www.pogodaiklimat.ru

Погода и климат >> Архив погоды >> Швейцария >> Payerne


ПОГОДА в Payerne

  • Прогноз погоды в Payerne
  • Монитор погоды в Payerne
  • Климат города

АРХИВ ПОГОДЫ в Payerne

Время (UTC), дата Ветер
(напр.,м/с)
 
Видим.   Явления Облачность Т
(С)
Тd
(С)
f
(%)
Тe
(С)
Тes
(С)
Комфортность P
(гПа)
Po
(гПа)
Тmin
(С)
Tmax
(С)
R
(мм)
R24
(мм)
S
(см)
19 10.10 ЮЗ 1
{3}
н/о н/о +10.6 +7.3 80 +11 +11 1022.8 964.7
20 10.10 ЮЗ 2
{4}
н/о н/о +9.0 +6.8 86 +8 +8 1023.5 965.0
21 10.10 Ю 1
{4}
25 км 4/3 1500 м
[Sc Ci fib]
+8.0 +6.6 91 +7 +7 1023.7 965.0
22 10.10 Ю 1
{3}
н/о н/о +8.9 +6.4 84 +8 +8 1023.7 965.2
23 10.10 ЮЗ 1
{3}
н/о н/о +7.7 +5.5 86 +7 +7 1023.9 965.1
00 11.10 Ю 2
{4}
20 км 1/0
[Ci fib]
+5.9 +4.8 93 +4 +4 1024.2 965.0
01 11.10 ЮЗ 1
{4}
н/о н/о +6.8 +5.5 91 +6 +6 1024.0 965.0
02 11.10 штиль 0
{2}
н/о н/о +6.0 +5.2 95 +5 +5 1024.0 964.9
03 11.10 ЮЗ 1
{4}
н/о н/о +5.8 +4.7 93 +4 +4 1024.1 964.9
04 11.10 ЮВ 1
{2}
н/о н/о +5.1 +4.4 95 +5 +5 1024.4 965.0
05 11.10 Ю 1
{1}
н/о н/о +4.5 +3.9 96 +4 +4 1024.3 964.8
06 11.10 В 1 20 км 3/1 200 м
[Frnb Ci fib]
+4.9 +4.1 95 +5 +5 1024.4 965.0 +4.5
07 11.10 Ю 1
{2}
н/о н/о +7.1 +5.4 89 +6 +6 1024.3 965.4
08 11.10 ЮЗ 1
{2}
н/о н/о +9.7 +7.7 87 +10 +10 1024.0 965.6
09 11.10 штиль 0
{2}
25 км 1/1 210 м
[Frnb Ci fib]
+11.5 +8.0 79 +11 +16 1023.5 965.5
10 11.10 С 1
{2}
н/о н/о +13.9 +8.1 68 +14 +14 1022.6 965.2
11 11.10 СЗ 2
{3}
н/о н/о +15.6 +8.3 62 +16 +16 1021.8 964.8
12 11.10 С 2
{3}
25 км ясно +17.1 +9.4 60 +18 +25 1020.7 964.0
13 11.10 СЗ 2
{3}
н/о н/о +19.0 +8.6 51 +20 +20 1019.7 963.4
14 11.10 ЮЗ 5
{10}
н/о н/о +20.4 +7.1 42 +21 +21 комфорт 1018.8 962.9
15 11.10 ЮЗ 4
{10}
н/о н/о +20.4 +7.7 44 +22 +22 комфорт 1018.5 962.6
16 11.10 ЮЗ 3
{6}
н/о н/о +19.3 +8.0 48 +20 +20 1018.7 962.6
17 11.10 ЮЗ 1
{5}
н/о н/о +16.1 +8.2 59 +17 +17 1019.9 963.1
18 11.10 ЮЗ 2
{10}
30 км ясно +16.0 +6.9 55 +16 +16 1020.4 963.5 +20.5
19 11.10 ЮЗ 3
{4}
н/о н/о +15.2 +7.1 58 +15 +15 1021.1 964.0
20 11.10 Ю 1
{3}
н/о н/о +12.5 +7.1 70 +13 +13 1022.1 964.4
21 11.10 Ю 2
{4}
25 км ясно +11.4 +7.0 74 +11 +11 1022.7 964.8
22 11.10 ЮВ 1
{2}
н/о н/о +9.1 +6.7 85 +9 +9 1023.5 965.0
23 11.10 Ю 3
{4}
н/о н/о +12.7 +7.2 69 +12 +12 1022.5 964.8
00 12.10 ЮЗ 2
{5}
25 км 4/0
[Cc]
+12.1 +7.5 73 +12 +12 1022.9 965.1
01 12.10 Ю 3
{5}
н/о н/о +12.1 +7.8 75 +11 +11 1023.0 965.2
02 12.10 ЮЗ 2
{5}
н/о н/о +13.0 +7.5 69 +12 +12 1022.9 965.3
03 12.10 ЮЗ 3
{5}
н/о н/о +13.5 +6.9 64 +13 +13 1022.8 965.3
04 12.10 СЗ 2
{5}
н/о н/о +12.3 +7.0 70 +12 +12 1023.9 966.1
05 12.10 ЮЗ 3
{5}
н/о н/о +12.3 +6.8 69 +11 +11 1023.7 965.9
06 12.10 Ю 3 25 км 4/1 300 м
[Frnb Ac lent Ci sp]
+12.2 +7.1 71 +11 +11 1024.6 966.7 +8.9
07 12.10 ЮЗ 1
{5}
н/о н/о +13.9 +8.1 68 +15 +15 1025.3 967.7
08 12.10 ЮЗ 3
{6}
н/о н/о +15.6 +9.0 65 +15 +15 1025.4 968.2
09 12.10 ЮЗ 3
{6}
22 км 9/1 720 м
[Frnb Ac As]
+16.1 +9.2 64 +16 +17 1026.0 968.8
10 12.10 ЮЗ 2
{5}
н/о н/о +16.8 +8.9 60 +17 +17 1026.3 969.2
11 12.10 ЮЗ 3
{6}
н/о н/о +18.6 +9.1 54 +19 +19 1025.9 969.2
12 12.10 ЮЗ 2
{6}
30 км 1/1 1500 м
[Cu hum]
+20.1 +9.5 50 +22 +28 комфорт 1025.0 968.7
13 12.10 ЮЗ 3
{6}
н/о н/о +21.1 +9.1 46 +22 +22 комфорт 1024.4 968.3
14 12.10 ЮЗ 2
{5}
н/о н/о +20.9 +8.8 46 +23 +23 комфорт 1024.4 968.3
15 12.10 ЮЗ 2
{6}
н/о н/о +20.7 +8.4 45 +23 +23 комфорт 1024.2 968.0
16 12.10 СЗ 2
{4}
н/о н/о +19.9 +9.6 51 +22 +22 комфорт 1024.7 968.3
17 12.10 СВ 2
{3}
н/о н/о +17.1 +9.6 61 +18 +18 1025.9 968.9
18 12.10 В 2
{6}
30 км ясно +14.0 +9.6 75 +14 +14 1027.1 969.4 +21.5
19 12.10 В 1
{2}
н/о н/о +13.0 +9.3 78 +13 +13 1027.5 969.6
20 12.10 Ю 1
{2}
н/о н/о +11.5 +9.0 85 +11 +11 1028.2 970.0
21 12.10 Ю 1
{2}
30 км ясно +11.1 +8.7 85 +11 +11 1028.5 970.2
22 12.10 штиль 0
{2}
н/о н/о +9.9 +8.3 90 +9 +9 1028.8 970.2
23 12.10 Ю 1
{2}
н/о н/о +9.2 +7.7 90 +8 +8 1028.9 970.1
00 13.10 Ю 1
{2}
25 км ясно +8.2 +7.0 92 +7 +7 1029.3 970.3
01 13.10 ЮЗ 1
{2}
н/о н/о +8.3 +7.2 93 +8 +8 1029.3 970.3
02 13.10 штиль 0
{2}
н/о н/о +7.7 +6.8 94 +7 +7 1029.3 970.2
03 13.10 штиль 0
{2}
н/о н/о +6.9 +6.2 95 +6 +6 1029.5 970.2
04 13.10 Ю 1
{2}
н/о н/о +7.1 +6.4 95 +6 +6 1029.5 970.3
05 13.10 штиль 0
{1}
н/о н/о +6.4 +5.6 95 +5 +5 1029.8 970.4
06 13.10 штиль 0 16 км местами туман поземный 1/1 200 м
[Frnb Ci fib]
+6.1 +5.5 96 +5 +5 1030.1 970.6 +5.9
07 13.10 ЮЗ 1
{2}
н/о н/о +7.6 +6.6 93 +7 +7 1030.3 971.1
08 13.10 штиль 0
{2}
н/о н/о +10.0 +8.0 87 +9 +9 1029.9 971.3
09 13.10 СЗ 1
{2}
20 км 1/0
[Ci ing]
+12.8 +9.5 80 +14 +18 1029.1 971.1
10 13.10 СЗ 1
{2}
н/о н/о +14.6 +9.1 70 +16 +16 1028.5 970.9
11 13.10 С 1
{2}
н/о н/о +16.7 +9.4 62 +18 +18 1027.5 970.4
12 13.10 СЗ 1
{3}
30 км 1/0
[Ci ing]
+18.8 +9.5 55 +20 +28 1026.3 969.6
13 13.10 СЗ 1
{3}
н/о н/о +19.4 +9.0 51 +21 +21 комфорт 1025.7 969.2
14 13.10 В 1
{3}
н/о н/о +20.1 +9.5 50 +22 +22 комфорт 1025.4 969.0
15 13.10 С 2
{3}
н/о н/о +20.3 +9.8 51 +23 +23 комфорт 1025.1 968.8
16 13.10
{3}
н/о н/о +18.8 +10.3 58 1025.4 968.8
17 13.10 В 1
{3}
н/о н/о +15.9 +10.5 70 +17 +17 1026.3 969.1
18 13.10 штиль 0
{3}
30 км ясно +13.3 +10.1 81 +13 +13 1027.3 969.5 +21.0
19 13.10 штиль 0
{2}
н/о н/о +12.7 +9.7 82 +12 +12 1027.6 969.6
20 13.10 Ю 1
{2}
н/о н/о +11.0 +9.3 89 +12 +12 1028.3 970.0
21 13.10 Ю 1
{2}
30 км ясно +10.0 +8.5 90 +9 +9 1028.6 970.0
22 13.10 штиль 0
{2}
н/о н/о +9.5 +8.2 92 +9 +9 1029.0 970.3
23 13.10 Ю 2
{2}
н/о н/о +8.6 +7.7 94 +7 +7 1029.3 970.4
00 14.10 Ю 2
{3}
17 км ясно +8.5 +7.5 93 +7 +7 1029.5 970.6
01 14.10 ЮЗ 1
{4}
н/о н/о +7.7 +7.1 96 +8 +8 1029.7 970.6
02 14.10 штиль 0 н/о н/о +7.0 +6.4 96 +6 +6 1029.8 970.5
03 14.10 штиль 0
{4}
н/о н/о +7.6 +6.8 95 +7 +7 1029.7 970.6
04 14.10 Ю 1
{2}
н/о н/о +6.9 +6.0 94 +7 +7 1029.9 970.6
05 14.10 ЮЗ 1
{2}
н/о н/о +6.5 +5.7 95 +5 +5 1030.1 970.7
06 14.10 Ю 1 4500 м дымка 1/1 100 м
[St]
+5.2 +4.7 97 +5 +5 1030.4 970.7 +5.3
07 14.10 штиль 0
{2}
н/о н/о +6.9 +6.0 94 +6 +6 1030.4 971.1
08 14.10 штиль 0
{2}
н/о н/о +10.0 +8.1 88 +9 +9 1030.2 971.5
09 14.10 З 1
{2}
12 км дымка 1/1 210 м
[St]
+12.5 +8.0 74 +13 +17 1029.6 971.5
10 14.10 В 1
{2}
н/о н/о +14.8 +9.2 69 +16 +16 1028.9 971.3
11 14.10 СВ 1
{2}
н/о н/о +17.2 +9.7 61 +18 +18 1027.9 970.8
12 14.10 С 1
{3}
20 км 1/0
[Ci fib]
+18.9 +10.2 57 +21 +28 комфорт 1026.9 970.2
13 14.10 В 1
{3}
н/о н/о +19.9 +10.1 53 +22 +22 комфорт 1026.0 969.6
14 14.10 СВ 1
{3}
н/о н/о +20.8 +9.6 49 +24 +24 комфорт 1025.4 969.2
15 14.10 С 1
{3}
н/о н/о +21.0 +8.9 46 +24 +24 комфорт 1025.3 969.1
16 14.10
{3}
н/о н/о +19.3 +10.5 57 1025.6 969.1
17 14.10 штиль 0
{2}
н/о н/о +15.8 +10.3 70 +16 +16 1026.7 969.4
18 14.10 Ю 1
{3}
24 км ясно +13.4 +9.9 79 +14 +14 1027.8 970.0 +21.1
19 14.10 Ю 2
{2}
н/о н/о +11.3 +8.7 84 +10 +10 1028.6 970.3
20 14.10 Ю 2
{2}
н/о н/о +10.9 +8.8 87 +10 +10 1028.9 970.5
21 14.10 Ю 1
{2}
24 км ясно +10.3 +8.7 90 +11 +11 1029.1 970.6
22 14.10 Ю 2
{2}
н/о н/о +9.7 +8.4 92 +8 +8 1029.5 970.8
23 14.10 Ю 2
{3}
н/о н/о +9.1 +8.2 94 +8 +8 1029.7 970.9
00 15.10 штиль 0
{3}
24 км ясно +8.3 +7.5 95 +7 +7 1029.8 970.8
01 15.10 ЮЗ 1
{1}
н/о н/о +7.9 +7.0 94 +8 +8 1029.9 970.8
02 15.10 Ю 1
{3}
н/о н/о +8.2 +7.2 93 +7 +7 1029.5 970.5
03 15.10 ЮЗ 1
{3}
н/о н/о +7.2 +6.4 95 +7 +7 1029.7 970.5
04 15.10 штиль 0
{2}
н/о н/о +6.2 +5.2 93 +5 +5 1030.1 970.6
05 15.10 Ю 1
{2}
н/о н/о +5.8 +5.2 96 +4 +4 1030.1 970.6
06 15.10 штиль 0 7000 м дымка ясно +5.6 +5.0 96 +4 +4 1030.2 970.6 +5.8
07 15.10 штиль 0
{1}
н/о н/о +7.0 +5.9 93 +6 +6 1030.5 971.2
08 15.10 штиль 0
{1}
н/о н/о +10.3 +7.6 83 +10 +10 1030.0 971.4
09 15.10 СЗ 1
{2}
20 км ясно +12.9 +8.5 75 +14 +18 1029.3 971.3
10 15.10 СЗ 1
{2}
н/о н/о +15.7 +8.3 61 +16 +16 1028.5 971.1
11 15.10 С 1
{2}
н/о н/о +17.3 +9.4 60 +19 +19 1027.5 970.5
12 15.10 штиль 0
{2}
28 км ясно +19.4 +9.7 53 +20 +29 1026.3 969.8
13 15.10 С 1
{3}
н/о н/о +20.9 +10.4 51 +24 +24 комфорт 1025.4 969.2
14 15.10 С 1
{3}
н/о н/о +22.1 +10.9 49 +24 +24 комфорт 1024.7 968.8
15 15.10 С 2
{3}
н/о н/о +21.4 +10.4 49 +23 +23 комфорт 1024.6 968.5
16 15.10 В 1
{3}
н/о н/о +19.6 +11.3 59 +22 +22 комфорт 1024.9 968.5
17 15.10 штиль 0
{1}
н/о н/о +15.9 +11.3 74 +16 +16 1026.2 969.0
18 15.10 штиль 0
{3}
28 км ясно +14.7 +10.2 74 +14 +14 1027.1 969.6 +22.1
19 15.10 штиль 0 н/о н/о +12.1 +10.3 89 +12 +12 1027.8 969.7
20 15.10 Ю 1
{2}
н/о н/о +11.4 +9.3 87 +12 +12 1028.2 969.9
21 15.10 Ю 1
{2}
28 км ясно +10.8 +9.1 89 +10 +10 1028.6 970.2
22 15.10 Ю 2
{2}
н/о н/о +10.2 +8.1 87 +9 +9 1029.2 970.6
23 15.10 штиль 0
{3}
н/о н/о +8.7 +7.3 91 +8 +8 1029.4 970.5
00 16.10 Ю 1
{3}
28 км ясно +8.9 +7.5 91 +8 +8 1029.6 970.7
01 16.10 штиль 0
{2}
н/о н/о +8.1 +6.7 91 +7 +7 1029.7 970.7
02 16.10 штиль 0
{1}
н/о н/о +7.2 +6.3 94 +6 +6 1029.5 970.3
03 16.10 Ю 1
{2}
н/о н/о +7.7 +6.1 90 +7 +7 1029.3 970.2
04 16.10 штиль 0
{2}
н/о н/о +6.9 +5.8 93 +6 +6 1029.4 970.1
05 16.10 штиль 0
{2}
н/о н/о +6.8 +5.8 93 +6 +6 1029.3 970.0
06 16.10 ЮЗ 1 13 км дымка ясно +6.3 +4.7 89 +6 +6 1029.4 970.0 +5.9
07 16.10 штиль 0
{2}
н/о н/о +7.4 +6.2 92 +6 +6 1029.6 970.4
08 16.10 СЗ 1
{2}
н/о н/о +10.7 +7.3 79 +11 +11 1028.9 970.5
09 16.10 штиль 0
{2}
35 км ясно +13.4 +8.5 72 +13 +18 1028.4 970.5
10 16.10 СВ 1
{2}
н/о н/о +16.4 +8.6 60 +18 +18 1027.4 970.2
11 16.10 С 1
{3}
н/о н/о +18.5 +7.7 49 +20 +20 1026.7 970.0
12 16.10 С 1
{3}
40 км ясно +20.7 +9.7 49 +23 +31 комфорт 1025.6 969.4
13 16.10 СВ 1
{4}
н/о н/о +21.4 +9.1 45 +23 +23 комфорт 1024.9 968.8
14 16.10 СВ 1
{3}
н/о н/о +22.4 +9.7 44 +24 +24 комфорт 1024.1 968.3
15 16.10 С 2
{4}
н/о н/о +22.1 +10.7 48 +24 +24 комфорт 1024.0 968.1
16 16.10 штиль 0
{2}
н/о н/о +21.0 +10.6 51 +23 +23 комфорт 1024.0 967.9
17 16.10 штиль 0
{1}
н/о н/о +15.8 +11.5 76 +16 +16 1025.4 968.2
18 16.10 штиль 0
{4}
25 км ясно +13.4 +10.0 80 +13 +13 1026.2 968.5 +22.7
19 16.10 Ю 1
{2}
н/о н/о +12.3 +9.5 83 +12 +12 1026.7 968.7
20 16.10 З 1
{3}
н/о н/о +12.9 +9.5 80 +13 +13 1026.8 968.9
21 16.10 Ю 2
{3}
26 км ясно +11.1 +8.9 86 +10 +10 1027.4 969.1
22 16.10 Ю 2
{3}
н/о н/о +9.5 +7.5 87 +8 +8 1027.9 969.3
23 16.10 З 2
{3}
н/о н/о +9.4 +7.2 86 +8 +8 1027.6 969.0
00 17.10 ЮВ 1
{3}
26 км ясно +8.2 +6.7 90 +8 +8 1028.0 969.1
01 17.10 Ю 1
{3}
н/о н/о +6.3 +5.4 94 +6 +6 1028.2 968.9
02 17.10 Ю 1
{2}
н/о н/о +7.4 +5.6 88 +6 +6 1027.8 968.7
03 17.10 В 1
{3}
н/о н/о +5.8 +4.8 93 +4 +4 1028.0 968.6
04 17.10 штиль 0
{2}
н/о н/о +6.6 +5.0 90 +6 +6 1027.6 968.4
05 17.10 Ю 1
{2}
н/о н/о +4.9 +3.7 92 +3 +3 1028.0 968.4
06 17.10 штиль 0 17 км 3/0
[Ci fib]
+5.1 +4.2 94 +4 +4 1027.9 968.3 +4.9
07 17.10 Ю 1
{2}
н/о н/о +6.9 +5.0 88 +6 +6 1027.7 968.5
08 17.10 ЮЗ 1
{2}
н/о н/о +10.5 +6.4 76 +10 +10 1026.8 968.4
09 17.10 З 1
{2}
30 км 8/0
[Ci fib]
+12.9 +7.3 69 +14 +17 1025.6 967.8
10 17.10 З 1
{2}
н/о н/о +16.4 +7.1 54 +18 +18 1024.1 967.1
11 17.10 СЗ 1
{2}
н/о н/о +17.6 +6.4 48 +19 +19 1023.2 966.5
12 17.10 СЗ 1
{3}
40 км 1/0
[Ci fib]
+19.7 +6.0 41 +21 +28 комфорт 1021.7 965.5
13 17.10 СЗ 2
{3}
н/о н/о +20.7 +7.9 44 +23 +23 комфорт 1020.5 964.5
14 17.10 С 1
{3}
н/о н/о +21.1 +7.3 41 +22 +22 комфорт 1019.6 963.8
15 17.10 СВ 1
{3}
н/о н/о +21.0 +8.4 44 +23 +23 комфорт 1019.1 963.3
16 17.10 В 2
{2}
н/о н/о +18.8 +9.3 54 +20 +20 1019.2 962.9
17 17.10 В 1
{2}
н/о н/о +15.4 +9.7 69 +16 +16 1019.9 962.9

 

Местоположение метеостанции Payerne (Швейцария): широта 46.82 долгота 6.95 высота над уровнем моря 491 м.

В архиве по умолчанию представлена погода в Payerne за последнюю неделю. Архивные данные за месяц целиком и за предыдущие месяцы, начиная с января 2011 года, Вы можете получить, выбрав интересующий диапазон дат из раскрывающегося списка и нажав кнопку "Ввод!".

Внимание! Время в таблицах - всемирное. Для получения местного времени необходимо прибавить поправку, которая в Payerne равна 1 ч.

Смотрите также архив погоды в соседних городах и на ближайших метеорологических станциях:

Погода в Neuchatel (Швейцария) (20 км)
Погода в Fribourg Posieux (Швейцария) (21 км)
Погода в Plaffeien-Oberschro (Швейцария) (26 км)
Погода в Cressier (Швейцария) (27 км)
Погода в Fretaz La (Швейцария) (28 км)
Погода в Oron (Швейцария) (28 км)
Погода в Mathod (Швейцария) (29 км)
Погода в Moleson (Швейцария) (31 км)
Погода в La Brevine (Швейцария) (31 км)
Погода в Muehleberg (Швейцария) (31 км)

Пояснения к столбцам:

Ветер - указаны скорость ветра в м/с - средняя за 10 мин, порывы в срок и между сроками (в фигурных скобках) и направление, откуда дует ветер: С - северный, СВ - северо-восточный, В - восточный, ЮВ - юго-восточный, Ю - южный, ЮЗ - юго-западный, З - западный, СЗ - северо-западный.
Видимость - горизонтальная дальность видимости в метрах или километрах. При видимости от 1 до 10 км при отсутствии осадков обычно наблюдается дымка, при ухудшении видимости до 1 км и менее - туман. В сухую погоду видимость может ухудшаться дымом, пылью или мглою.
Явления - указаны атмосферные явления, наблюдавшиеся в срок или в последний час перед сроком; фигурными скобками обозначены явления, наблюдавшиеся между сроками (за 1-3 часа до срока); квадратными скобками обозначены град или гололедные отложения с указанием их диаметра в мм.
Облачность - указаны через наклонную черту общая и нижняя облачность в баллах и высота нижней границы облаков в метрах; квадратными скобками обозначены формы облаков: Ci - перистые, Cs - перисто-слоистые, Cc - перисто-кучевые, Ac - высококучевые, As - высокослоистые, Sc - слоисто-кучевые, Ns - слоисто-дождевые, Cu - кучевые, Cb - кучево-дождевые. Подробнее классификацию облаков см. в Атласе облаков (PDF).
T - Температура воздуха - температура, измеренная на высоте 2 м над землей.
Td - Температура точки росы - температура, при понижении до которой содержащийся в воздухе водяной пар достигнет насыщения.
f - Относительная влажность воздуха - влажноcть воздуха, измеренная на высоте 2 м над землей.
Te - Эффективная температура - температура, которую ощущает одетый по сезону человек в тени. Характеристика душности погоды. При расчете учитывается влияние влажности воздуха и скорости ветра на теплоощущения человека.
Tes - Эффективная температура на солнце - температура, которую ощущает человек, с поправкой на солнечный нагрев. Характеристика знойности погоды. Зависит от высоты солнца над горизонтом, облачности и скорости ветра. Ночью, в пасмурную погоду, а также при ветре 12 м/с и более поправка равна нулю.
P - Атмосферное давление - приведенное к уровню моря атмосферное давление.
Po - Атмосферное давление - измеренное на уровне метеостанции атмосферное давление.
Tmin - Минимальная температура - минимум температуры воздуха на высоте 2 м над землей.
Tmax - Максимальная температура - максимум температуры воздуха на высоте 2 м над землей.
R - Количество осадков - Количество выпавших осадков за период времени, мм. При наведении курсора мыши на число - период времени, за который выпало указанное количество осадков.
R24 - Количество осадков - Количество выпавших осадков за 24 часа, мм.
S - Снежный покров - Высота снежного покрова, см. При наведении курсора мыши на число - состояние снежного покрова и степень покрытия местности в баллах.